[[{"header":{"parameterUnit":"m.s-1","parameterCategory":2,"la1":30.2991,"la2":30.254,"lo1":-89.0895,"lo2":-89.0444,"dy":0.0017,"dx":0.0017,"nx":28,"ny":28,"refTime":"2025-11-17T03:00:00:Z","depth":"0","parameterNumber":2,"parameterNumberName":"U-component_of_CURRENTS"},"data":[0,0,0,0,0,0,0,0,0,0,0,0,0,0,0,0,0,0,0,0,0,0,0,0,0,0,0,0,0,0,0,0,0,0,0,0,0,0,0,0,0,0,0,0,0,0,0,0,0,0,0,0,0,0,0,0,0,0,-0.2393,-0.2394,0,-0.2419,-0.2419,-0.2418,-0.2367,-0.2366,-0.2365,-0.2364,-0.2294,-0.2293,-0.2292,0,0,0,0,0,0,0,0,0,0,0,0,0,-0.2229,-0.2232,-0.2393,-0.2394,-0.2395,-0.2419,-0.2419,-0.2418,-0.2367,-0.2366,-0.2365,-0.2364,-0.2294,-0.2293,-0.2292,0,0,0,0,0,0,0,0,0,0,0,0,0,-0.2275,-0.2233,-0.2393,-0.2378,-0.2377,-0.2419,-0.2419,-0.2418,-0.2368,-0.2366,-0.2365,-0.2363,-0.2294,-0.2293,-0.2291,-0.2313,0,0,-0.2287,-0.2287,0,0,0,0,0,0,0,0,-0.2273,-0.228,-0.2379,-0.2379,-0.2379,-0.2395,-0.2335,-0.2381,-0.2368,-0.2364,-0.2364,-0.2362,-0.2324,-0.232,-0.232,-0.231,-0.2307,-0.2287,-0.2286,-0.2286,-0.2285,0,0,0,0,0,0,0,-0.227,-0.2279,-0.2396,-0.2381,-0.238,-0.2346,-0.2351,-0.2343,-0.2345,-0.2364,-0.2362,-0.2377,-0.2322,-0.2321,-0.2317,-0.2306,-0.2287,-0.2286,-0.2285,-0.2284,-0.2308,-0.2309,0,0,0,0,0,0,-0.2287,-0.2277,-0.2395,-0.2398,-0.2329,-0.2351,-0.2356,-0.2385,-0.2347,-0.2343,-0.2378,-0.2375,-0.2324,-0.2319,-0.2315,-0.2356,-0.2286,-0.2284,-0.2283,-0.2307,-0.2308,-0.231,0,0,0,0,0,0,-0.2284,-0.2298,-0.2395,-0.2342,-0.2352,-0.2357,-0.2389,-0.2387,-0.2393,-0.236,-0.2352,-0.2389,-0.2323,-0.2317,-0.2315,-0.2352,-0.2284,-0.2282,-0.2305,-0.2307,-0.2309,-0.2427,0,0,0,0,0,0,-0.2279,-0.2297,-0.2316,-0.2344,-0.2357,-0.2441,-0.2391,-0.2388,-0.2408,-0.2403,-0.2367,-0.2358,-0.2321,-0.2318,-0.2314,-0.2349,-0.2281,-0.2303,-0.2306,-0.2309,-0.2421,-0.2433,-0.2443,0,0,0,0,0,-0.2273,-0.2311,-0.2317,-0.2331,-0.2386,-0.2444,-0.2448,-0.2438,-0.241,-0.2433,-0.2396,-0.236,-0.2332,-0.2318,-0.2313,-0.2348,-0.2302,-0.2305,-0.2308,-0.2416,-0.2431,-0.2443,0,0,0,0,0,0,-0.2242,-0.2312,-0.2317,-0.2372,-0.2416,-0.2439,-0.2454,-0.2453,-0.2444,-0.2427,-0.238,-0.2371,-0.2379,-0.2351,-0.2337,-0.2362,-0.2311,-0.2313,-0.2395,-0.2408,-0.2418,-0.2439,-0.228,0,0,0,0,0,-0.2251,-0.2292,-0.2357,-0.2394,-0.2425,-0.2442,-0.2459,-0.2464,-0.2466,-0.246,-0.2442,-0.2411,-0.2391,-0.2389,-0.2367,-0.2391,-0.2364,-0.2409,-0.242,-0.2429,-0.2442,-0.2426,-0.2437,-0.2321,-0.2321,-0.2321,0,0,-0.2237,-0.2288,-0.2303,-0.2389,-0.2413,-0.2482,-0.2447,-0.2491,-0.2533,-0.2455,-0.2489,-0.2448,-0.2403,-0.2419,-0.2422,-0.2402,-0.2453,-0.2433,-0.2442,-0.245,-0.2431,-0.2442,-0.2452,-0.2323,-0.2323,-0.2322,0,0,-0.2263,-0.2293,-0.2352,-0.2411,-0.2483,-0.2501,-0.2525,-0.2572,-0.2577,-0.2613,-0.2555,-0.2542,-0.2532,-0.2507,-0.249,-0.2552,-0.2504,-0.2545,-0.2626,-0.2612,-0.2621,-0.2629,-0.263,-0.2637,-0.2558,-0.2559,-0.2559,0,-0.2252,-0.2345,-0.2374,-0.2468,-0.2517,-0.2522,-0.2604,-0.2623,-0.2658,-0.2667,-0.2639,-0.2612,-0.2575,-0.2583,-0.2601,-0.2579,-0.2564,-0.2581,-0.2627,-0.2634,-0.264,-0.2639,-0.2645,-0.2565,-0.2564,-0.2563,-0.2563,0,-0.2337,-0.2421,-0.2463,-0.258,-0.2631,-0.2699,-0.2751,-0.2784,-0.2781,-0.2793,-0.2803,-0.2751,-0.2732,-0.2723,-0.2681,-0.271,-0.2684,-0.2636,-0.2596,-0.2659,-0.2654,-0.2658,-0.2573,-0.2571,-0.2569,-0.2568,0,0,-0.2274,-0.2489,-0.2496,-0.2584,-0.27,-0.2749,-0.2825,-0.2893,-0.2926,-0.2937,-0.2972,-0.2939,-0.2896,-0.2873,-0.2818,-0.2812,-0.2845,-0.2756,-0.2752,-0.2763,-0.2829,-0.2753,-0.2749,-0.2803,-0.2804,-0.2805,-0.2815,0,-0.2331,-0.2528,-0.2606,-0.2752,-0.2855,-0.2903,-0.2971,-0.302,-0.3034,-0.3068,-0.302,-0.3014,-0.2958,-0.2932,-0.2929,-0.2851,-0.2859,-0.2848,-0.2761,-0.2759,-0.2687,-0.2752,-0.2577,-0.2565,-0.2818,-0.2819,-0.282,0,-0.2366,-0.251,-0.2678,-0.2867,-0.2909,-0.2977,-0.3061,-0.313,-0.3172,-0.3179,-0.3175,-0.3129,-0.3117,-0.3047,-0.2997,-0.2991,-0.2933,-0.2879,-0.2877,-0.2767,-0.269,-0.2538,-0.2562,-0.251,-0.2826,-0.2825,-0.2825,0,-0.2291,-0.2533,-0.2663,-0.2734,-0.2946,-0.2997,-0.3075,-0.3143,-0.3185,-0.3227,-0.3231,-0.3227,-0.3186,-0.3139,-0.3035,-0.3016,-0.2972,-0.2924,-0.2813,-0.2807,-0.2621,-0.2596,-0.2583,-0.2903,-0.2903,-0.2903,-0.2903,0,-0.2311,-0.2403,-0.2639,-0.2721,-0.2844,-0.2979,-0.3064,-0.3139,-0.3211,-0.3244,-0.3262,-0.3252,-0.3201,-0.3159,-0.3084,-0.2967,-0.3011,-0.2846,-0.2807,-0.2658,-0.2638,-0.255,-0.2572,-0.2904,-0.2904,-0.2904,-0.2903,0,-0.2187,-0.2355,-0.2523,-0.2763,-0.2819,-0.2893,-0.3057,-0.311,-0.3187,-0.3226,-0.323,-0.3263,-0.3211,-0.3162,-0.3078,-0.2998,-0.2843,-0.2856,-0.2697,-0.2639,-0.2476,-0.251,-0.2494,-0.2427,-0.2746,-0.2744,-0.2742,0,-0.2143,-0.2216,-0.2498,-0.2581,-0.2684,-0.2816,-0.289,-0.3053,-0.3104,-0.3206,-0.3204,-0.3201,-0.3139,-0.3031,-0.2895,-0.2776,-0.277,-0.258,-0.2509,-0.2465,-0.2475,-0.2512,-0.246,-0.2319,-0.2314,-0.231,-0.2307,0,-0.2028,-0.2116,-0.2261,-0.2422,-0.2539,-0.2695,-0.282,-0.2863,-0.3021,-0.3038,-0.3031,-0.2993,-0.2924,-0.2717,-0.2618,-0.2528,-0.2499,-0.2495,-0.2472,-0.2174,-0.2189,-0.2103,-0.2345,-0.2271,-0.2275,-0.2277,-0.2279,-0.2281,-0.1874,-0.1929,-0.2075,-0.2193,-0.2365,-0.2483,-0.2476,-0.2614,-0.2639,-0.2591,-0.2759,-0.2619,-0.2556,-0.2358,-0.2284,-0.2102,-0.2222,-0.2013,-0.2073,-0.2126,-0.202,-0.2208,-0.2073,-0.2075,-0.2077,-0.2079,-0.208,0,-0.1623,-0.1687,-0.1812,-0.1956,-0.2027,-0.2202,-0.2328,-0.2233,-0.2151,-0.2223,-0.2161,-0.2121,-0.196,-0.1929,-0.1782,-0.1683,-0.1646,-0.1681,-0.1673,-0.1648,-0.1798,-0.1732,-0.1487,-0.1487,-0.1487,-0.1487,-0.1487,-0.1487,-0.1493,-0.1479,-0.1543,-0.1529,-0.1632,-0.1588,-0.1602,-0.1537,-0.151,-0.1391,-0.1388,-0.1405,-0.1594,-0.1703,-0.1561,-0.1482,-0.1463,-0.1427,-0.1519,-0.1596,-0.1631,-0.1664,-0.1604,-0.1336,-0.1336,-0.1246,-0.1246,-0.1245]},{"header":{"parameterUnit":"m.s-1","parameterCategory":2,"la1":30.2991,"la2":30.254,"lo1":-89.0895,"lo2":-89.0444,"dy":0.0017,"dx":0.0017,"nx":28,"ny":28,"refTime":"2025-11-17T03:00:00:Z","depth":"0","parameterNumber":3,"parameterNumberName":"V-component_of_CURRENTS"},"data":[0,0,0,0,0,0,0,0,0,0,0,0,0,0,0,0,0,0,0,0,0,0,0,0,0,0,0,0,0,0,0,0,0,0,0,0,0,0,0,0,0,0,0,0,0,0,0,0,0,0,0,0,0,0,0,0,0,0,0.1224,0.1224,0,0.1299,0.13,0.1301,0.1351,0.1351,0.1351,0.135,0.1429,0.1431,0.1434,0,0,0,0,0,0,0,0,0,0,0,0,0,0.1251,0.125,0.1224,0.1224,0.1225,0.1299,0.13,0.1302,0.1351,0.1351,0.1351,0.135,0.1429,0.1431,0.1434,0,0,0,0,0,0,0,0,0,0,0,0,0,0.1279,0.125,0.1224,0.1254,0.1258,0.1298,0.13,0.1302,0.1351,0.1351,0.135,0.135,0.1428,0.1431,0.1434,0.146,0,0,0.1445,0.1446,0,0,0,0,0,0,0,0,0.1277,0.1278,0.1249,0.1252,0.1256,0.1311,0.1339,0.1353,0.1351,0.1321,0.135,0.135,0.1387,0.1393,0.1416,0.1464,0.1467,0.1445,0.1447,0.1448,0.1449,0,0,0,0,0,0,0,0.1275,0.1276,0.1259,0.125,0.1254,0.1308,0.1311,0.1343,0.1359,0.1324,0.1326,0.1326,0.1389,0.1412,0.1418,0.1468,0.1445,0.1448,0.145,0.1451,0.1562,0.1562,0,0,0,0,0,0,0.1248,0.1273,0.1257,0.1261,0.126,0.1306,0.131,0.1298,0.1358,0.1366,0.1326,0.1328,0.1407,0.1414,0.1421,0.1476,0.1448,0.1452,0.1453,0.1561,0.1562,0.1563,0,0,0,0,0,0,0.1248,0.1246,0.1253,0.1266,0.127,0.1305,0.1291,0.1299,0.1315,0.1359,0.1368,0.1332,0.1407,0.1416,0.1453,0.1478,0.1453,0.1456,0.156,0.1561,0.1562,0.1572,0,0,0,0,0,0,0.1249,0.1245,0.123,0.1263,0.1268,0.127,0.1291,0.1301,0.1313,0.1317,0.1367,0.1375,0.1407,0.1447,0.1456,0.1482,0.1459,0.1558,0.156,0.1562,0.157,0.1573,0.1576,0,0,0,0,0,0.1249,0.122,0.1229,0.1227,0.1245,0.1269,0.1278,0.1307,0.1313,0.1321,0.136,0.1373,0.1464,0.1451,0.1461,0.1488,0.1558,0.156,0.1562,0.1569,0.1573,0.1576,0,0,0,0,0,0,0.122,0.1223,0.1233,0.1205,0.1234,0.1276,0.1273,0.13,0.1338,0.1335,0.1383,0.1394,0.1437,0.1457,0.1441,0.1525,0.1514,0.1518,0.1516,0.152,0.1523,0.1499,0.1462,0,0,0,0,0,0.1206,0.1183,0.1211,0.1188,0.1195,0.1236,0.1248,0.127,0.1305,0.1321,0.1365,0.1409,0.1456,0.148,0.1518,0.1561,0.157,0.1585,0.1588,0.159,0.1578,0.164,0.1647,0.157,0.157,0.1569,0,0,0.1186,0.1184,0.1171,0.1181,0.12,0.1209,0.1243,0.1251,0.1277,0.1323,0.1368,0.1414,0.1467,0.1521,0.1543,0.1541,0.1612,0.1593,0.1594,0.158,0.1643,0.165,0.1657,0.1571,0.1571,0.157,0,0,0.113,0.1133,0.1099,0.1122,0.1141,0.1177,0.1175,0.1223,0.1261,0.1309,0.1356,0.1419,0.1479,0.1542,0.1576,0.1614,0.162,0.1621,0.1625,0.1686,0.1692,0.1698,0.1694,0.1699,0.1629,0.1629,0.1629,0,0.1108,0.1064,0.1097,0.1083,0.109,0.1156,0.114,0.12,0.1263,0.1303,0.1315,0.1444,0.1495,0.158,0.1601,0.1623,0.1627,0.1609,0.1689,0.1696,0.1702,0.1696,0.1702,0.163,0.1629,0.1629,0.1629,0,0.1033,0.1011,0.0993,0.0997,0.1023,0.1015,0.1095,0.1144,0.1198,0.1268,0.1361,0.1448,0.1521,0.1564,0.1596,0.1674,0.1651,0.1682,0.1678,0.171,0.1701,0.1707,0.1631,0.163,0.163,0.163,0,0,0.0943,0.0936,0.0927,0.0912,0.097,0.0974,0.1041,0.1115,0.1153,0.1264,0.1321,0.1453,0.151,0.1551,0.1618,0.1687,0.1742,0.1697,0.17,0.1685,0.1822,0.1711,0.1707,0.1787,0.1789,0.179,0.1789,0,0.0867,0.0789,0.0835,0.0801,0.077,0.0876,0.093,0.1024,0.1121,0.1207,0.1351,0.1419,0.1505,0.1529,0.1626,0.1709,0.1762,0.1736,0.1798,0.1799,0.1693,0.1713,0.1705,0.1696,0.1795,0.1796,0.1797,0,0.0769,0.073,0.0649,0.0678,0.068,0.0692,0.0775,0.084,0.1012,0.109,0.1222,0.1329,0.1465,0.1515,0.1692,0.1666,0.1735,0.1803,0.1805,0.17,0.17,0.1687,0.1703,0.1836,0.1806,0.1806,0.1805,0,0.0636,0.0609,0.0525,0.0529,0.0577,0.0586,0.0637,0.0786,0.0836,0.1002,0.1034,0.1246,0.1296,0.1466,0.1618,0.1654,0.1773,0.1844,0.1805,0.1796,0.1799,0.1786,0.1946,0.1947,0.1947,0.1947,0.1947,0,0.052,0.0471,0.0442,0.0401,0.0343,0.0442,0.0444,0.0544,0.067,0.0709,0.0939,0.0981,0.1283,0.1403,0.1574,0.1678,0.1738,0.1789,0.1797,0.1795,0.1783,0.1903,0.1967,0.1947,0.1947,0.1947,0.1947,0,0.0389,0.0369,0.028,0.0272,0.0266,0.0223,0.0287,0.0308,0.0437,0.0483,0.0517,0.0762,0.0925,0.1184,0.1426,0.1555,0.1762,0.1719,0.1655,0.1655,0.175,0.1812,0.1913,0.1994,0.1699,0.1697,0.1694,0,0.0324,0.0239,0.0144,0.0081,0.0066,0.0034,0.0026,0.016,0.0188,0.0333,0.0332,0.0504,0.0658,0.0957,0.1225,0.1476,0.164,0.1564,0.1652,0.1733,0.1812,0.1871,0.1939,0.1661,0.1658,0.1656,0.1655,0,0.0204,0.0141,0.0052,-0.0096,-0.0159,-0.0199,-0.0199,-0.0208,-0.0055,0.0048,0.0164,0.0296,0.0541,0.0846,0.112,0.1285,0.1644,0.1525,0.1679,0.1831,0.1843,0.1929,0.1638,0.1638,0.164,0.1641,0.1642,0.1642,0.012,0.001,-0.0128,-0.0258,-0.0339,-0.0395,-0.0375,-0.0301,-0.0205,0.0042,0.0057,0.037,0.0586,0.101,0.1165,0.146,0.1508,0.1608,0.1683,0.1739,0.1805,0.1408,0.1371,0.1371,0.1371,0.1371,0.1371,0,0.0046,-0.0087,-0.0249,-0.0384,-0.0474,-0.0476,-0.0482,-0.0369,-0.0176,0.0061,0.0286,0.0625,0.0909,0.1171,0.1487,0.1657,0.1778,0.1752,0.1917,0.199,0.1711,0.1699,0.1646,0.1646,0.1645,0.1645,0.1645,0.1645,0.0006,-0.0173,-0.0276,-0.0458,-0.0531,-0.0544,-0.0513,-0.0283,-0.0069,0.0384,0.073,0.0922,0.1159,0.1578,0.1894,0.1934,0.2169,0.2089,0.2227,0.2111,0.2108,0.2104,0.2113,0.2147,0.2148,0.2527,0.2531,0.2533]}],[{"header":{"parameterUnit":"m.s-1","parameterCategory":2,"la1":30.2991,"la2":30.254,"lo1":-89.0895,"lo2":-89.0444,"dy":0.0017,"dx":0.0017,"nx":28,"ny":28,"refTime":"2025-11-17T03:00:00:Z","depth":"2","parameterNumber":2,"parameterNumberName":"U-component_of_CURRENTS"},"data":[0,0,0,0,0,0,0,0,0,0,0,0,0,0,0,0,0,0,0,0,0,0,0,0,0,0,0,0,0,0,0,0,0,0,0,0,0,0,0,0,0,0,0,0,0,0,0,0,0,0,0,0,0,0,0,0,0,0,-0.2852,-0.2852,0,-0.2804,-0.2803,-0.2802,-0.2802,-0.2803,-0.2804,-0.2805,-0.2689,-0.2685,-0.2681,0,0,0,0,0,0,0,0,0,0,0,0,0,-0.2688,-0.2692,-0.2852,-0.2852,-0.2852,-0.2804,-0.2803,-0.2802,-0.2802,-0.2803,-0.2804,-0.2805,-0.269,-0.2686,-0.2681,0,0,0,0,0,0,0,0,0,0,0,0,0,-0.2709,-0.2694,-0.2852,-0.2848,-0.2848,-0.2804,-0.2803,-0.2801,-0.2802,-0.2803,-0.2804,-0.2806,-0.2692,-0.2686,-0.268,-0.2616,0,0,-0.2662,-0.266,0,0,0,0,0,0,0,0,-0.2708,-0.2715,-0.2849,-0.2849,-0.2848,-0.2813,-0.2702,-0.2737,-0.2801,-0.2816,-0.2805,-0.2806,-0.2725,-0.2717,-0.2701,-0.2611,-0.2606,-0.2662,-0.2658,-0.2655,-0.2654,0,0,0,0,0,0,0,-0.2707,-0.2715,-0.283,-0.2849,-0.2848,-0.276,-0.2767,-0.2708,-0.276,-0.2815,-0.2815,-0.2814,-0.2724,-0.2707,-0.2698,-0.2604,-0.2662,-0.2656,-0.2653,-0.2651,-0.2478,-0.2477,0,0,0,0,0,0,-0.2732,-0.2716,-0.2832,-0.2829,-0.2783,-0.2764,-0.2771,-0.282,-0.2762,-0.2756,-0.2813,-0.2815,-0.2716,-0.2705,-0.2694,-0.2656,-0.2656,-0.265,-0.2647,-0.2479,-0.2478,-0.2477,0,0,0,0,0,0,-0.273,-0.2745,-0.2834,-0.2769,-0.2775,-0.2768,-0.2821,-0.2819,-0.2811,-0.2762,-0.2754,-0.281,-0.2717,-0.2702,-0.2648,-0.265,-0.2647,-0.2642,-0.248,-0.2479,-0.2477,-0.2554,0,0,0,0,0,0,-0.2726,-0.2746,-0.279,-0.2774,-0.278,-0.282,-0.282,-0.2817,-0.2809,-0.2811,-0.2756,-0.2747,-0.2717,-0.2657,-0.2642,-0.2642,-0.2637,-0.2482,-0.248,-0.2478,-0.2553,-0.2555,-0.2557,0,0,0,0,0,-0.2721,-0.2776,-0.2794,-0.2807,-0.2844,-0.282,-0.2815,-0.2808,-0.2808,-0.2805,-0.2766,-0.2749,-0.2634,-0.2651,-0.2634,-0.2633,-0.2483,-0.248,-0.2478,-0.2552,-0.2555,-0.2557,0,0,0,0,0,0,-0.2714,-0.2781,-0.28,-0.2872,-0.2854,-0.2822,-0.2814,-0.2808,-0.2774,-0.2771,-0.2729,-0.2716,-0.2671,-0.2629,-0.2649,-0.2574,-0.2557,-0.2551,-0.2619,-0.2621,-0.2623,-0.2636,-0.2632,0,0,0,0,0,-0.2739,-0.2811,-0.282,-0.2871,-0.2861,-0.2836,-0.2826,-0.282,-0.2787,-0.2775,-0.2735,-0.2685,-0.2643,-0.2618,-0.2567,-0.2518,-0.2499,-0.2505,-0.2507,-0.251,-0.2505,-0.2495,-0.2497,-0.2469,-0.2469,-0.2469,0,0,-0.2759,-0.2793,-0.284,-0.2874,-0.2853,-0.2839,-0.2832,-0.2815,-0.2807,-0.2762,-0.2726,-0.2687,-0.263,-0.2588,-0.2563,-0.2557,-0.2506,-0.2507,-0.251,-0.2504,-0.2493,-0.2496,-0.2499,-0.2468,-0.2468,-0.2468,0,0,-0.2773,-0.2846,-0.2881,-0.2871,-0.2854,-0.2842,-0.2841,-0.2808,-0.2798,-0.2756,-0.273,-0.2694,-0.2614,-0.2588,-0.2562,-0.2536,-0.2519,-0.252,-0.2544,-0.2535,-0.2538,-0.2541,-0.2525,-0.2526,-0.2523,-0.2523,-0.2524,0,-0.2801,-0.2838,-0.2874,-0.2865,-0.2858,-0.2846,-0.2833,-0.2818,-0.2774,-0.2761,-0.2752,-0.2662,-0.2616,-0.2582,-0.2578,-0.2545,-0.2537,-0.2548,-0.2543,-0.2545,-0.2546,-0.253,-0.2529,-0.2527,-0.2526,-0.2526,-0.2526,0,-0.2797,-0.2831,-0.2829,-0.2847,-0.2843,-0.2827,-0.2816,-0.2805,-0.279,-0.2773,-0.2735,-0.2681,-0.2632,-0.2616,-0.2587,-0.2573,-0.2564,-0.2553,-0.2549,-0.2555,-0.2535,-0.2534,-0.2532,-0.253,-0.2529,-0.2529,0,0,-0.2857,-0.2848,-0.2843,-0.2836,-0.2834,-0.2822,-0.282,-0.2806,-0.2805,-0.2768,-0.2762,-0.2694,-0.2678,-0.2646,-0.2617,-0.2607,-0.261,-0.2589,-0.2587,-0.2597,-0.2593,-0.2509,-0.2499,-0.2613,-0.2613,-0.2613,-0.2579,0,-0.2838,-0.2819,-0.2828,-0.2811,-0.2794,-0.2805,-0.2806,-0.28,-0.2792,-0.2783,-0.2751,-0.2722,-0.2689,-0.2674,-0.2661,-0.262,-0.2608,-0.2619,-0.2564,-0.2562,-0.2507,-0.2495,-0.2272,-0.2215,-0.2578,-0.2577,-0.2577,0,-0.281,-0.2803,-0.2779,-0.2788,-0.2784,-0.2783,-0.2792,-0.2793,-0.2796,-0.2793,-0.2781,-0.2759,-0.2732,-0.271,-0.2657,-0.2672,-0.2632,-0.2605,-0.2603,-0.2495,-0.2474,-0.2263,-0.2199,-0.2574,-0.2575,-0.2575,-0.2575,0,-0.2778,-0.2771,-0.2751,-0.2749,-0.2756,-0.2756,-0.277,-0.2782,-0.279,-0.2801,-0.2809,-0.2784,-0.277,-0.2728,-0.2668,-0.2665,-0.2623,-0.2607,-0.2495,-0.2489,-0.2268,-0.2242,-0.257,-0.257,-0.257,-0.257,-0.2571,0,-0.2749,-0.2731,-0.273,-0.2714,-0.2705,-0.2729,-0.2735,-0.2752,-0.2785,-0.2793,-0.2806,-0.2794,-0.2778,-0.2751,-0.269,-0.2586,-0.2635,-0.2489,-0.247,-0.2286,-0.2263,-0.2546,-0.2544,-0.2569,-0.2569,-0.257,-0.257,0,-0.27,-0.27,-0.267,-0.2673,-0.268,-0.2667,-0.2713,-0.2731,-0.2766,-0.2786,-0.2792,-0.2807,-0.2751,-0.273,-0.2664,-0.2599,-0.2518,-0.2472,-0.2257,-0.2213,-0.2384,-0.2386,-0.2324,-0.2321,-0.2318,-0.2315,-0.2313,0,-0.267,-0.2645,-0.2626,-0.262,-0.2617,-0.2622,-0.2647,-0.2702,-0.2732,-0.2765,-0.2773,-0.2749,-0.2639,-0.2532,-0.2426,-0.2304,-0.2434,-0.2095,-0.2031,-0.2368,-0.2357,-0.2363,-0.2368,-0.1769,-0.1763,-0.1758,-0.1753,0,-0.2609,-0.2594,-0.2573,-0.2551,-0.2559,-0.2571,-0.2608,-0.2613,-0.2681,-0.266,-0.2591,-0.2486,-0.238,-0.2127,-0.2046,-0.1958,-0.2094,-0.1985,-0.2382,-0.1875,-0.1843,-0.1834,-0.1857,-0.1708,-0.1712,-0.1716,-0.1718,-0.172,-0.2558,-0.2525,-0.2497,-0.2468,-0.2487,-0.2477,-0.2417,-0.2442,-0.2391,-0.2268,-0.2329,-0.2087,-0.202,-0.1695,-0.1613,-0.1605,-0.173,-0.1678,-0.1694,-0.1716,-0.1666,-0.1632,-0.1447,-0.145,-0.1453,-0.1455,-0.1457,0,-0.2481,-0.2453,-0.243,-0.2374,-0.2341,-0.2387,-0.2364,-0.2209,-0.2035,-0.1983,-0.1814,-0.1515,-0.131,-0.1318,-0.1175,-0.1145,-0.1132,-0.1155,-0.1135,-0.1178,-0.1218,-0.1145,-0.0787,-0.0786,-0.0784,-0.0783,0,0,-0.2438,-0.2378,-0.2353,-0.2232,-0.2198,-0.2067,-0.1997,-0.1724,-0.1593,-0.1312,-0.1194,-0.1155,-0.12,-0.0967,-0.0921,-0.0845,-0.1009,-0.0802,-0.1326,-0.134,-0.1379,-0.1492,-0.1425,0,0,0,0,0]},{"header":{"parameterUnit":"m.s-1","parameterCategory":2,"la1":30.2991,"la2":30.254,"lo1":-89.0895,"lo2":-89.0444,"dy":0.0017,"dx":0.0017,"nx":28,"ny":28,"refTime":"2025-11-17T03:00:00:Z","depth":"2","parameterNumber":3,"parameterNumberName":"V-component_of_CURRENTS"},"data":[0,0,0,0,0,0,0,0,0,0,0,0,0,0,0,0,0,0,0,0,0,0,0,0,0,0,0,0,0,0,0,0,0,0,0,0,0,0,0,0,0,0,0,0,0,0,0,0,0,0,0,0,0,0,0,0,0,0,-0.0231,-0.023,0,-0.0105,-0.0103,-0.0102,-0.0051,-0.0051,-0.0051,-0.0052,0.0076,0.008,0.0084,0,0,0,0,0,0,0,0,0,0,0,0,0,-0.0424,-0.042,-0.0231,-0.023,-0.0228,-0.0105,-0.0103,-0.0102,-0.0051,-0.0051,-0.0051,-0.0052,0.0075,0.008,0.0084,0,0,0,0,0,0,0,0,0,0,0,0,0,-0.0323,-0.0419,-0.0232,-0.0188,-0.0182,-0.0105,-0.0103,-0.0101,-0.0051,-0.0051,-0.0051,-0.0052,0.0074,0.0079,0.0085,0.0126,0,0,0.0101,0.0104,0,0,0,0,0,0,0,0,-0.0329,-0.0316,-0.0196,-0.0191,-0.0185,-0.0094,-0.0124,-0.0025,-0.0051,-0.0101,-0.0052,-0.0052,0.002,0.003,0.0054,0.0132,0.0138,0.0102,0.0105,0.0107,0.0109,0,0,0,0,0,0,0,-0.0336,-0.0321,-0.0182,-0.0194,-0.0187,-0.0172,-0.0159,-0.0105,-0.004,-0.0097,-0.0093,-0.0078,0.0023,0.0049,0.0058,0.0139,0.0102,0.0106,0.011,0.0112,0.0244,0.0244,0,0,0,0,0,0,-0.035,-0.0328,-0.0186,-0.0178,-0.0259,-0.0169,-0.0153,-0.0123,-0.004,-0.0028,-0.0078,-0.0076,0.004,0.0051,0.0062,0.0095,0.0107,0.0112,0.0116,0.0244,0.0244,0.0244,0,0,0,0,0,0,-0.0354,-0.0338,-0.0191,-0.0251,-0.0231,-0.0165,-0.0131,-0.012,-0.0097,-0.0026,-0.0014,-0.0066,0.004,0.0055,0.0102,0.0101,0.0115,0.012,0.0244,0.0244,0.0244,0.0174,0,0,0,0,0,0,-0.036,-0.034,-0.0321,-0.0251,-0.0228,-0.0154,-0.013,-0.0117,-0.0087,-0.0083,-0.0012,-0.0,0.0041,0.0094,0.0108,0.0109,0.0124,0.0243,0.0244,0.0244,0.0176,0.0172,0.0168,0,0,0,0,0,-0.0367,-0.0342,-0.0321,-0.0304,-0.0205,-0.0153,-0.0141,-0.0096,-0.0086,-0.0077,-0.0032,-0.0003,0.0106,0.0099,0.0115,0.0117,0.0243,0.0244,0.0244,0.0178,0.0172,0.0168,0,0,0,0,0,0,-0.0421,-0.0332,-0.0308,-0.0258,-0.0214,-0.0145,-0.0128,-0.01,-0.0055,-0.0054,0.0005,0.0021,0.0059,0.0102,0.0092,0.0157,0.0178,0.0182,0.0122,0.0118,0.0114,0.0108,0.0129,0,0,0,0,0,-0.0423,-0.0376,-0.0306,-0.027,-0.025,-0.0192,-0.0165,-0.0136,-0.0087,-0.0068,-0.002,0.0031,0.0076,0.0105,0.0151,0.0194,0.0254,0.0206,0.0202,0.0198,0.0205,0.0283,0.0286,0.0246,0.0246,0.0246,0,0,-0.0428,-0.0379,-0.0349,-0.0278,-0.0241,-0.0223,-0.0177,-0.0142,-0.0128,-0.006,-0.003,0.0019,0.0084,0.0123,0.0145,0.0158,0.0244,0.0199,0.0195,0.0204,0.0284,0.0288,0.0291,0.0247,0.0246,0.0246,0,0,-0.0446,-0.0383,-0.0364,-0.0333,-0.0282,-0.0243,-0.0239,-0.0176,-0.0148,-0.0107,-0.0062,-0.0013,0.0058,0.0106,0.0138,0.0146,0.0216,0.0157,0.014,0.0215,0.0219,0.0223,0.0312,0.0325,0.016,0.016,0.016,0,-0.046,-0.0429,-0.0356,-0.035,-0.0331,-0.0262,-0.0263,-0.022,-0.0152,-0.0122,-0.0111,0.0004,0.0051,0.0113,0.011,0.0137,0.0197,0.0147,0.0209,0.0215,0.022,0.0311,0.0326,0.0156,0.0157,0.0157,0.0157,0,-0.0479,-0.0458,-0.0451,-0.0414,-0.0385,-0.0371,-0.031,-0.0277,-0.0237,-0.0185,-0.0116,-0.0042,0.0028,0.0047,0.0081,0.0143,0.018,0.0189,0.0217,0.022,0.0316,0.0333,0.0152,0.0153,0.0154,0.0155,0,0,-0.0502,-0.0468,-0.0468,-0.0472,-0.0419,-0.0398,-0.037,-0.0313,-0.0282,-0.0212,-0.0165,-0.0084,-0.0029,0.0012,0.0068,0.0135,0.0222,0.0174,0.018,0.0256,0.0407,0.0364,0.0379,0.024,0.0243,0.0244,0.0461,0,-0.0545,-0.0559,-0.0521,-0.0535,-0.054,-0.0472,-0.0444,-0.0381,-0.0315,-0.025,-0.0153,-0.0085,-0.0046,-0.0006,0.0063,0.0187,0.0262,0.0164,0.04,0.0407,0.0362,0.0395,0.0276,0.0453,0.0478,0.0481,0.0483,0,-0.0588,-0.0591,-0.0616,-0.0593,-0.0585,-0.0576,-0.0513,-0.0478,-0.0364,-0.0307,-0.0218,-0.0132,-0.0013,0.0007,0.0229,0.0166,0.0278,0.0372,0.0382,0.0378,0.0394,0.0454,0.0484,0.0512,0.051,0.0508,0.0506,0,-0.0658,-0.0657,-0.068,-0.0675,-0.0635,-0.0625,-0.0592,-0.0496,-0.0455,-0.0336,-0.0281,-0.0134,-0.0035,0.0109,0.0304,0.0275,0.055,0.0536,0.061,0.061,0.0574,0.0565,0.0685,0.0685,0.0685,0.0684,0.0683,0,-0.0722,-0.0742,-0.0715,-0.0729,-0.0742,-0.0685,-0.0662,-0.0605,-0.0509,-0.0438,-0.0314,-0.0219,-0.0003,0.0177,0.0319,0.0528,0.0573,0.0623,0.0662,0.0546,0.0532,0.0628,0.0619,0.0692,0.069,0.0689,0.0687,0,-0.0803,-0.0784,-0.0814,-0.0787,-0.078,-0.0788,-0.0729,-0.07,-0.0594,-0.05,-0.0459,-0.0247,-0.0015,0.0199,0.0475,0.0564,0.0752,0.0812,0.0668,0.0682,0.076,0.0745,0.0913,0.0913,0.0913,0.0914,0.0914,0,-0.0851,-0.0871,-0.087,-0.0889,-0.0884,-0.0875,-0.0858,-0.0763,-0.0711,-0.0506,-0.0456,-0.0216,-0.0092,0.0282,0.0486,0.072,0.0803,0.0802,0.0701,0.0762,0.0784,0.0768,0.0752,0.0651,0.0649,0.0648,0.0646,0,-0.0945,-0.0934,-0.0951,-0.0991,-0.0997,-0.0981,-0.0937,-0.0908,-0.0754,-0.067,-0.05,-0.0404,-0.0083,0.0122,0.0429,0.0557,0.0739,0.0772,0.0916,0.0579,0.0524,0.0541,0.0534,0.0632,0.0633,0.0634,0.0635,0.0636,-0.101,-0.1044,-0.1062,-0.1102,-0.1099,-0.1072,-0.1052,-0.0986,-0.0915,-0.0761,-0.0598,-0.0436,-0.0198,0.0136,0.0364,0.0607,0.0604,0.0693,0.0696,0.0701,0.0598,0.0542,0.0638,0.0639,0.0641,0.0642,0.0643,0,-0.1111,-0.1133,-0.1173,-0.1194,-0.1197,-0.1163,-0.1092,-0.1043,-0.0975,-0.083,-0.0708,-0.044,-0.0255,0.0051,0.0331,0.0493,0.0476,0.0598,0.0543,0.0553,0.0564,0.0454,0.0457,0.0458,0.0459,0.0459,0,0,-0.1164,-0.1236,-0.1254,-0.129,-0.1277,-0.1241,-0.1195,-0.1109,-0.0988,-0.0862,-0.0726,-0.0593,-0.0269,-0.0056,0.0154,0.0324,0.0405,0.0341,0.0453,0.0368,0.0377,0.0563,0.0397,0,0,0,0,0]}],[{"header":{"parameterUnit":"m.s-1","parameterCategory":2,"la1":30.2991,"la2":30.254,"lo1":-89.0895,"lo2":-89.0444,"dy":0.0017,"dx":0.0017,"nx":28,"ny":28,"refTime":"2025-11-17T03:00:00:Z","depth":"4","parameterNumber":2,"parameterNumberName":"U-component_of_CURRENTS"},"data":[0,0,0,0,0,0,0,0,0,0,0,0,0,0,0,0,0,0,0,0,0,0,0,0,0,0,0,0,0,0,0,0,0,0,0,0,0,0,0,0,0,0,0,0,0,0,0,0,0,0,0,0,0,0,0,0,0,0,-0.0978,-0.0979,0,-0.1012,-0.1013,-0.1013,-0.1075,-0.1076,-0.1077,-0.1078,-0.1154,-0.1155,-0.1156,0,0,0,0,0,0,0,0,0,0,0,0,0,-0.0994,-0.0993,-0.0978,-0.0979,-0.0979,-0.1012,-0.1013,-0.1014,-0.1075,-0.1076,-0.1078,-0.1079,-0.1154,-0.1155,-0.1156,0,0,0,0,0,0,0,0,0,0,0,0,0,-0.1004,-0.0993,-0.0978,-0.1013,-0.1016,-0.1012,-0.1013,-0.1014,-0.1075,-0.1076,-0.1078,-0.1079,-0.1154,-0.1155,-0.1157,-0.1133,0,0,-0.1161,-0.1162,0,0,0,0,0,0,0,0,-0.1003,-0.1003,-0.1008,-0.1011,-0.1014,-0.104,-0.1046,-0.1055,-0.1074,-0.1054,-0.1078,-0.108,-0.1118,-0.1123,-0.1126,-0.1137,-0.114,-0.1161,-0.1162,-0.1163,-0.1163,0,0,0,0,0,0,0,-0.1002,-0.1003,-0.0993,-0.1008,-0.1012,-0.1036,-0.1039,-0.1048,-0.1078,-0.1055,-0.106,-0.1061,-0.1121,-0.1125,-0.1129,-0.1141,-0.1161,-0.1163,-0.1163,-0.1164,-0.1298,-0.1301,0,0,0,0,0,0,-0.0993,-0.1001,-0.0992,-0.0994,-0.1012,-0.1034,-0.1038,-0.1031,-0.1077,-0.1085,-0.106,-0.1064,-0.1121,-0.1127,-0.1132,-0.1175,-0.1163,-0.1164,-0.1165,-0.1295,-0.1299,-0.1302,0,0,0,0,0,0,-0.0993,-0.0991,-0.099,-0.0999,-0.1,-0.1032,-0.1024,-0.1031,-0.1053,-0.108,-0.1089,-0.1077,-0.1123,-0.1129,-0.1187,-0.1176,-0.1165,-0.1166,-0.1292,-0.1296,-0.13,-0.1217,0,0,0,0,0,0,-0.0993,-0.0991,-0.0998,-0.0997,-0.0999,-0.1012,-0.1023,-0.103,-0.105,-0.1056,-0.1097,-0.1105,-0.1125,-0.1185,-0.1189,-0.1178,-0.1167,-0.1289,-0.1294,-0.1299,-0.1217,-0.1218,-0.1219,0,0,0,0,0,-0.0993,-0.099,-0.0997,-0.0997,-0.1002,-0.1013,-0.1017,-0.1045,-0.1049,-0.1069,-0.1112,-0.1104,-0.122,-0.1188,-0.1192,-0.118,-0.1287,-0.1293,-0.1298,-0.1216,-0.1218,-0.1219,0,0,0,0,0,0,-0.1,-0.0995,-0.1004,-0.1,-0.1018,-0.1023,-0.1037,-0.1047,-0.109,-0.1109,-0.1126,-0.1138,-0.1185,-0.1214,-0.1178,-0.1247,-0.1256,-0.1263,-0.1193,-0.1194,-0.1195,-0.1265,-0.1169,0,0,0,0,0,-0.1001,-0.0995,-0.1005,-0.1002,-0.1011,-0.1023,-0.1033,-0.1058,-0.1086,-0.1106,-0.1137,-0.1183,-0.1208,-0.1227,-0.127,-0.1291,-0.1325,-0.13,-0.1301,-0.1301,-0.1369,-0.1378,-0.1384,-0.1321,-0.1321,-0.1321,0,0,-0.1004,-0.0997,-0.0998,-0.1004,-0.1014,-0.1032,-0.1035,-0.1061,-0.1091,-0.1107,-0.1167,-0.1186,-0.1221,-0.1259,-0.1282,-0.1279,-0.1334,-0.1308,-0.1307,-0.1378,-0.1385,-0.139,-0.1395,-0.1325,-0.1324,-0.1324,0,0,-0.0994,-0.0999,-0.0996,-0.1012,-0.1036,-0.1051,-0.1059,-0.109,-0.1124,-0.1186,-0.1193,-0.1246,-0.1283,-0.1314,-0.1326,-0.1372,-0.1341,-0.1347,-0.1393,-0.1397,-0.1401,-0.1405,-0.1421,-0.1427,-0.1341,-0.1341,-0.1341,0,-0.0999,-0.0993,-0.1002,-0.1008,-0.102,-0.1056,-0.1071,-0.1109,-0.1164,-0.1192,-0.1222,-0.1308,-0.1333,-0.1358,-0.138,-0.1373,-0.1357,-0.1357,-0.1391,-0.1397,-0.1403,-0.1418,-0.1426,-0.1337,-0.1338,-0.1338,-0.1338,0,-0.0989,-0.1,-0.0999,-0.1016,-0.1037,-0.1058,-0.1106,-0.1155,-0.1203,-0.1239,-0.1317,-0.1376,-0.1439,-0.1419,-0.1414,-0.1443,-0.141,-0.1379,-0.1367,-0.1403,-0.1418,-0.1428,-0.1333,-0.1334,-0.1335,-0.1336,0,0,-0.0957,-0.0985,-0.0992,-0.0995,-0.1046,-0.1052,-0.112,-0.1174,-0.1214,-0.1311,-0.1362,-0.1441,-0.1483,-0.151,-0.1492,-0.1503,-0.151,-0.145,-0.1451,-0.1433,-0.1498,-0.1347,-0.1343,-0.1426,-0.1428,-0.143,-0.1477,0,-0.095,-0.0956,-0.098,-0.1,-0.1006,-0.1064,-0.1112,-0.1177,-0.1255,-0.1323,-0.1409,-0.148,-0.1503,-0.153,-0.1546,-0.1514,-0.1538,-0.1503,-0.1503,-0.1506,-0.1336,-0.1351,-0.1437,-0.1484,-0.1486,-0.1488,-0.1489,0,-0.0936,-0.0939,-0.0959,-0.098,-0.0989,-0.102,-0.1096,-0.1135,-0.1246,-0.1328,-0.1435,-0.1504,-0.1586,-0.1593,-0.1637,-0.1584,-0.1579,-0.1563,-0.1561,-0.1478,-0.1374,-0.1459,-0.1507,-0.1506,-0.1505,-0.1503,-0.1502,0,-0.0895,-0.0918,-0.0927,-0.0938,-0.0985,-0.1015,-0.1037,-0.1139,-0.1181,-0.1336,-0.1403,-0.1525,-0.1564,-0.1619,-0.1638,-0.1625,-0.1638,-0.1615,-0.1498,-0.1487,-0.1642,-0.1638,-0.1683,-0.1683,-0.1683,-0.1682,-0.1682,0,-0.0862,-0.0867,-0.0912,-0.0917,-0.0931,-0.0967,-0.1019,-0.1082,-0.118,-0.1214,-0.139,-0.145,-0.1559,-0.1585,-0.1633,-0.1581,-0.1651,-0.1545,-0.1495,-0.1605,-0.1596,-0.1646,-0.1641,-0.1684,-0.1684,-0.1683,-0.1683,0,-0.0813,-0.0849,-0.0851,-0.0899,-0.0914,-0.0914,-0.0979,-0.1013,-0.1124,-0.1175,-0.1236,-0.1363,-0.1406,-0.1496,-0.1538,-0.1522,-0.1538,-0.1504,-0.1629,-0.1579,-0.14,-0.1392,-0.1421,-0.1416,-0.1412,-0.1409,-0.1406,0,-0.0785,-0.0788,-0.0827,-0.0829,-0.0852,-0.0878,-0.0902,-0.0992,-0.1026,-0.111,-0.1111,-0.1187,-0.1276,-0.1244,-0.1335,-0.1426,-0.1413,-0.1428,-0.145,-0.1429,-0.1377,-0.1375,-0.1372,-0.1399,-0.1398,-0.1397,-0.1396,0,-0.0727,-0.0756,-0.0761,-0.077,-0.0788,-0.0796,-0.0823,-0.0846,-0.092,-0.1019,-0.1019,-0.1078,-0.1071,-0.115,-0.1187,-0.1259,-0.1433,-0.1386,-0.1396,-0.1418,-0.1402,-0.1355,-0.1357,-0.1382,-0.1384,-0.1385,-0.1386,0,-0.0689,-0.0677,-0.0696,-0.0694,-0.0702,-0.069,-0.0731,-0.0751,-0.0789,-0.0885,-0.0859,-0.0954,-0.1014,-0.1056,-0.1109,-0.1147,-0.1169,-0.118,-0.1202,-0.1219,-0.1132,-0.1082,-0.0942,0,0,0,0,0,-0.0641,-0.0621,-0.0612,-0.0601,-0.0602,-0.0607,-0.0658,-0.0709,-0.0785,-0.0754,-0.0813,-0.084,-0.0894,-0.0948,-0.0958,-0.1038,-0.1178,-0.1045,-0.1202,-0.1304,-0.132,-0.1237,0,0,0,0,0,0,-0.0607,-0.0598,-0.0589,-0.0524,-0.0495,-0.0489,-0.052,-0.0573,-0.0585,-0.0669,-0.0714,-0.0778,-0.086,-0.0868,-0.093,-0.0949,-0.1034,-0.1106,-0.1104,-0.1294,-0.1309,-0.1322,-0.1243,0,0,0,0,0]},{"header":{"parameterUnit":"m.s-1","parameterCategory":2,"la1":30.2991,"la2":30.254,"lo1":-89.0895,"lo2":-89.0444,"dy":0.0017,"dx":0.0017,"nx":28,"ny":28,"refTime":"2025-11-17T03:00:00:Z","depth":"4","parameterNumber":3,"parameterNumberName":"V-component_of_CURRENTS"},"data":[0,0,0,0,0,0,0,0,0,0,0,0,0,0,0,0,0,0,0,0,0,0,0,0,0,0,0,0,0,0,0,0,0,0,0,0,0,0,0,0,0,0,0,0,0,0,0,0,0,0,0,0,0,0,0,0,0,0,-0.0476,-0.0476,0,-0.0505,-0.0506,-0.0506,-0.0489,-0.0488,-0.0487,-0.0486,-0.0454,-0.0454,-0.0454,0,0,0,0,0,0,0,0,0,0,0,0,0,-0.0437,-0.0438,-0.0476,-0.0476,-0.0476,-0.0505,-0.0506,-0.0506,-0.0489,-0.0488,-0.0487,-0.0486,-0.0454,-0.0454,-0.0454,0,0,0,0,0,0,0,0,0,0,0,0,0,-0.046,-0.0438,-0.0476,-0.047,-0.047,-0.0505,-0.0506,-0.0506,-0.0489,-0.0488,-0.0486,-0.0485,-0.0454,-0.0454,-0.0454,-0.0482,0,0,-0.0454,-0.0454,0,0,0,0,0,0,0,0,-0.0458,-0.0461,-0.0471,-0.0471,-0.0471,-0.0491,-0.048,-0.0495,-0.049,-0.0483,-0.0486,-0.0484,-0.0461,-0.046,-0.0471,-0.048,-0.0479,-0.0454,-0.0454,-0.0454,-0.0454,0,0,0,0,0,0,0,-0.0457,-0.046,-0.0488,-0.0471,-0.0471,-0.0478,-0.0479,-0.0483,-0.0479,-0.0483,-0.0482,-0.0484,-0.046,-0.0471,-0.047,-0.0478,-0.0454,-0.0454,-0.0454,-0.0454,-0.0484,-0.0484,0,0,0,0,0,0,-0.0451,-0.0459,-0.0487,-0.0489,-0.046,-0.0479,-0.0481,-0.0487,-0.048,-0.0478,-0.0485,-0.0483,-0.0472,-0.047,-0.0469,-0.0501,-0.0454,-0.0454,-0.0454,-0.0483,-0.0484,-0.0485,0,0,0,0,0,0,-0.045,-0.0454,-0.0486,-0.0473,-0.0478,-0.0481,-0.0488,-0.0488,-0.0502,-0.0482,-0.0479,-0.0499,-0.0471,-0.0469,-0.0477,-0.0499,-0.0454,-0.0454,-0.0482,-0.0483,-0.0484,-0.0565,0,0,0,0,0,0,-0.0449,-0.0453,-0.0472,-0.0473,-0.0478,-0.0509,-0.0489,-0.049,-0.0505,-0.0503,-0.0493,-0.0488,-0.0469,-0.0478,-0.0477,-0.0498,-0.0454,-0.0481,-0.0483,-0.0484,-0.0562,-0.0569,-0.0576,0,0,0,0,0,-0.0448,-0.0473,-0.0472,-0.0477,-0.0498,-0.051,-0.0514,-0.0512,-0.0507,-0.0519,-0.0513,-0.0489,-0.0486,-0.0479,-0.0478,-0.05,-0.048,-0.0482,-0.0484,-0.0559,-0.0568,-0.0576,0,0,0,0,0,0,-0.0468,-0.0474,-0.0473,-0.0499,-0.0505,-0.0506,-0.0523,-0.0523,-0.0531,-0.053,-0.0508,-0.0504,-0.0522,-0.0499,-0.0491,-0.051,-0.0476,-0.0478,-0.0533,-0.0542,-0.0549,-0.0543,-0.0454,0,0,0,0,0,-0.0481,-0.05,-0.0501,-0.0524,-0.0526,-0.0529,-0.054,-0.0538,-0.0539,-0.0542,-0.0533,-0.0525,-0.0531,-0.0526,-0.0525,-0.054,-0.0511,-0.0549,-0.0556,-0.0562,-0.0556,-0.0554,-0.0561,-0.0491,-0.0491,-0.0491,0,0,-0.0493,-0.0502,-0.0512,-0.053,-0.0534,-0.055,-0.0532,-0.0549,-0.0567,-0.0537,-0.0561,-0.0557,-0.0542,-0.056,-0.0564,-0.0541,-0.0564,-0.0564,-0.057,-0.056,-0.0557,-0.0563,-0.057,-0.0492,-0.0492,-0.0491,0,0,-0.052,-0.0535,-0.0554,-0.0564,-0.0576,-0.0578,-0.0585,-0.059,-0.0596,-0.062,-0.0605,-0.0616,-0.0616,-0.0613,-0.0612,-0.0657,-0.0609,-0.0649,-0.0674,-0.0673,-0.0679,-0.0684,-0.0646,-0.0647,-0.0644,-0.0644,-0.0644,0,-0.0539,-0.0563,-0.0563,-0.0583,-0.0598,-0.0591,-0.0614,-0.0625,-0.0634,-0.0646,-0.0632,-0.0653,-0.0645,-0.0669,-0.0678,-0.0675,-0.0647,-0.0648,-0.0683,-0.0687,-0.0691,-0.0651,-0.0651,-0.0648,-0.0647,-0.0647,-0.0647,0,-0.0566,-0.0597,-0.061,-0.0633,-0.0648,-0.0671,-0.0675,-0.0695,-0.0703,-0.0708,-0.0736,-0.073,-0.0736,-0.0739,-0.0721,-0.0743,-0.0705,-0.0703,-0.0665,-0.0703,-0.0658,-0.0657,-0.0654,-0.0652,-0.0651,-0.065,0,0,-0.0582,-0.0623,-0.0631,-0.0654,-0.068,-0.0694,-0.0729,-0.0756,-0.0782,-0.0788,-0.0818,-0.083,-0.0818,-0.0814,-0.0798,-0.0788,-0.0791,-0.0749,-0.0747,-0.0715,-0.0756,-0.0666,-0.0654,-0.0793,-0.0794,-0.0794,-0.0711,0,-0.0609,-0.0657,-0.0672,-0.0724,-0.0747,-0.0763,-0.0799,-0.0822,-0.0836,-0.0861,-0.0857,-0.088,-0.0849,-0.0858,-0.0846,-0.0813,-0.0791,-0.0811,-0.0719,-0.0715,-0.0635,-0.0652,-0.0795,-0.071,-0.0709,-0.0709,-0.0709,0,-0.0628,-0.0663,-0.0716,-0.0775,-0.0787,-0.0823,-0.0876,-0.0903,-0.0931,-0.0944,-0.0955,-0.0944,-0.0941,-0.0911,-0.086,-0.087,-0.0814,-0.0776,-0.0773,-0.0657,-0.0622,-0.0664,-0.0705,-0.0705,-0.0705,-0.0706,-0.0706,0,-0.063,-0.0694,-0.0742,-0.0761,-0.0823,-0.0863,-0.0895,-0.0933,-0.0957,-0.0993,-0.1005,-0.1003,-0.0993,-0.0947,-0.086,-0.0864,-0.0781,-0.0785,-0.0644,-0.0636,-0.0707,-0.0703,-0.0741,-0.0742,-0.0742,-0.0742,-0.0742,0,-0.0651,-0.0694,-0.0754,-0.0783,-0.085,-0.0881,-0.0948,-0.098,-0.1016,-0.1026,-0.1041,-0.1029,-0.1,-0.0943,-0.0873,-0.0738,-0.0792,-0.0639,-0.0613,-0.074,-0.0741,-0.0704,-0.0701,-0.0739,-0.0739,-0.074,-0.0741,0,-0.0651,-0.069,-0.075,-0.0827,-0.0855,-0.09,-0.0976,-0.101,-0.1046,-0.1056,-0.1066,-0.1048,-0.0964,-0.0906,-0.0816,-0.0736,-0.064,-0.0576,-0.069,-0.0673,-0.0488,-0.049,-0.042,-0.0416,-0.0413,-0.041,-0.0408,0,-0.0656,-0.0686,-0.0771,-0.0808,-0.0853,-0.0924,-0.0968,-0.1024,-0.1035,-0.1039,-0.1022,-0.0971,-0.0936,-0.0746,-0.0689,-0.0553,-0.0524,-0.0474,-0.0502,-0.0475,-0.0458,-0.0465,-0.0471,-0.0402,-0.0402,-0.0401,-0.04,0,-0.0665,-0.0697,-0.0743,-0.081,-0.087,-0.0929,-0.0979,-0.0989,-0.1016,-0.1044,-0.0964,-0.0888,-0.0777,-0.0679,-0.0573,-0.0477,-0.052,-0.0441,-0.0447,-0.0472,-0.0454,-0.0441,-0.0451,-0.0389,-0.039,-0.0392,-0.0392,0,-0.0664,-0.0694,-0.0745,-0.0804,-0.0872,-0.091,-0.0949,-0.0944,-0.096,-0.0945,-0.0903,-0.0826,-0.079,-0.0633,-0.0534,-0.0437,-0.0408,-0.0381,-0.039,-0.0402,-0.0423,-0.0399,-0.0287,0,0,0,0,0,-0.0653,-0.0679,-0.073,-0.0792,-0.0855,-0.0893,-0.0937,-0.0961,-0.0972,-0.0899,-0.0901,-0.0792,-0.0634,-0.0583,-0.0464,-0.0475,-0.0402,-0.033,-0.0379,-0.0327,-0.034,-0.036,0,0,0,0,0,0,-0.0647,-0.069,-0.0715,-0.0765,-0.0802,-0.0865,-0.0898,-0.0908,-0.0863,-0.0858,-0.078,-0.074,-0.0601,-0.0699,-0.0456,-0.0428,-0.0435,-0.0268,-0.0265,-0.032,-0.0332,-0.0342,-0.0367,0,0,0,0,0]}]]